Location: Newark
(13.9550°N, 109.0422°E)
Time: 20:11:12
(UTC+00:00)

LightSail 2 - Visible Passes

Search period start: 20 October 2019 00:00
Search period end: 30 October 2019 00:00
Orbit: 707 x 722 km, 24.0° (Epoch: 19 October)

Date Brightness Start Highest point End Pass type
(mag) Time Alt. Az. Time Alt. Az. Time Alt. Az.
20 Oct 6.1 11:00:24 10° NW 11:05:04 34° NNE 11:08:37 16° ENE visible
20 Oct 7.2 12:45:43 10° WNW 12:47:37 23° WNW 12:47:37 23° WNW visible
21 Oct 5.2 11:48:10 10° WNW 11:53:16 60° NNE 11:53:46 57° NE visible
22 Oct 5.6 10:50:39 10° WNW 10:55:36 47° NNE 10:59:59 13° E visible
22 Oct 6.7 12:36:08 10° WNW 12:39:00 32° W 12:39:00 32° W visible
23 Oct 5.1 11:38:28 10° WNW 11:43:37 85° SSW 11:45:17 44° ESE visible
24 Oct 5.2 10:40:51 10° WNW 10:45:59 72° NNE 10:51:08 10° ESE visible
24 Oct 6.6 12:26:48 10° W 12:30:41 33° SW 12:30:41 33° SW visible
25 Oct 5.8 11:28:55 10° W 11:33:53 49° SSW 11:37:08 20° SE visible
26 Oct 7.2 12:18:00 10° WSW 12:21:41 20° SSW 12:22:40 19° S visible
27 Oct 6.9 11:19:42 10° W 11:24:04 28° SSW 11:28:26 10° SSE visible
28 Oct 7.9 12:10:57 10° SW 12:11:54 10° SSW 12:12:51 10° SSW visible
29 Oct 7.7 11:11:12 10° WSW 11:14:13 16° SSW 11:17:16 10° S visible
29 Oct 8.1 21:55:53 10° SSE 21:56:18 10° SSE 21:56:43 10° SSE visible
